Weather History for KATT - January, 2014

Change the Weather History Date:

Sunday, January 5, 2014

  Actual Average Record
Temperature  
Mean Temperature 47 °F 51 °F  
Max Temperature 59 °F 61 °F 83 °F (1921)
Min Temperature 34 °F 41 °F 18 °F (1972)
Degree Days  
Heating Degree Days 18 14  
Month to date heating degree days 80 70  
Since 1 July heating degree days 822 682  
Cooling Degree Days 0 0  
Month to date cooling degree days 0 0  
Year to date cooling degree days 0 0  
Moisture  
Dew Point 32 °F    
Average Humidity 59    
Maximum Humidity 87    
Minimum Humidity 31    
Precipitation  
Precipitation 0.00 in 0.07 in 1.44 in (2002)
Month to date precipitation 0.00 0.39  
Year to date precipitation 0.00 0.39  
Snow  
Snow 0.00 in - - ()
Month to date snowfall 0.0  
Since 1 July snowfall 0.0  
Snow Depth 0.00 in    
Sea Level Pressure  
Sea Level Pressure 30.08 in    
Wind  
Wind Speed 10 mph (NNW)    
Max Wind Speed 21 mph    
Max Gust Speed 34 mph    
Visibility 10 miles    
Events      
T = Trace of Precipitation, MM = Missing Value Source: NWS Daily Summary

Daily Weather History Graph

Daily Weather History Graph

Search for Another Location

Airport or City:

Trip Planner

Search our weather history database for the weather conditions in past years. The results will help you decide how hot, cold, wet, or windy it might be!

Date:

Astronomy

Jan. 05, 2014 Rise Set
Actual Time 7:28 AM CST 5:44 PM CST
Civil Twilight 7:02 AM CST 6:11 PM CST
Nautical Twilight 6:32 AM CST 6:40 PM CST
Astronomical Twilight 6:03 AM CST 7:10 PM CST
Moon 10:32 AM CST (1/5) 10:49 PM CST (1/5)
Length of Visible Light 11h 08m
Length of Day
10h 16m
Waxing Crescent, 25% of the Moon is Illuminated
Jan 5
Waxing Crescent
Jan 7
First Quarter
Jan 15
Full
Jan 23
Last Quarter
Jan 30
New

Hourly Weather History & Observations

Time (CST) Temp. Windchill Dew Point Humidity Pressure Visibility Wind Dir Wind Speed Gust Speed Precip Events Conditions
12:17 AM 59.0 °F - 54.0 °F 83% 29.82 in 10.0 mi South 4.6 mph - N/A   Scattered Clouds
12:51 AM 57.9 °F - 54.0 °F 87% 29.80 in 10.0 mi South 5.8 mph - N/A   Scattered Clouds
1:25 AM 57.9 °F - 54.0 °F 87% 29.81 in 10.0 mi Variable 5.8 mph - N/A   Scattered Clouds
1:51 AM 57.9 °F - 54.0 °F 87% 29.79 in 10.0 mi South 5.8 mph - N/A   Partly Cloudy
2:29 AM 57.0 °F - 54.0 °F 89% 29.81 in 10.0 mi Variable 3.5 mph - N/A   Mostly Cloudy
2:51 AM 57.0 °F - 53.1 °F 87% 29.80 in 10.0 mi SSE 3.5 mph - N/A   Overcast
3:51 AM 57.0 °F - 53.1 °F 87% 29.80 in 10.0 mi SSE 3.5 mph - N/A   Overcast
4:37 AM 57.9 °F - 54.0 °F 87% 29.86 in 10.0 mi NW 4.6 mph - N/A   Mostly Cloudy
4:49 AM 57.2 °F - 53.6 °F 88% 29.85 in 10.0 mi Calm Calm - N/A   Mostly Cloudy
4:51 AM 57.0 °F - 53.1 °F 87% 29.84 in 10.0 mi Calm Calm - N/A   Mostly Cloudy
5:30 AM 50.0 °F - 37.0 °F 61% 29.92 in 4.0 mi North 13.8 mph 26.5 mph N/A   Haze
5:51 AM 46.9 °F - 33.1 °F 59% 29.96 in 9.0 mi NNW 10.4 mph 27.6 mph N/A   Overcast
6:51 AM 39.9 °F 31.8 °F 27.0 °F 60% 30.03 in 10.0 mi NW 15.0 mph 27.6 mph N/A   Mostly Cloudy
6:58 AM 39.9 °F 31.8 °F 26.1 °F 58% 30.04 in 10.0 mi NNW 15.0 mph 27.6 mph N/A   Scattered Clouds
7:51 AM 37.9 °F 29.6 °F 25.0 °F 60% 30.08 in 10.0 mi NW 13.8 mph 20.7 mph N/A   Clear
8:51 AM 39.0 °F 31.8 °F 24.1 °F 55% 30.13 in 10.0 mi NNW 11.5 mph 20.7 mph N/A   Clear
9:51 AM 42.1 °F 34.9 °F 24.1 °F 49% 30.16 in 10.0 mi NNW 13.8 mph 23.0 mph N/A   Clear
10:51 AM 45.0 °F 39.3 °F 24.1 °F 44% 30.17 in 10.0 mi NW 11.5 mph 21.9 mph N/A   Clear
11:51 AM 46.9 °F - 24.1 °F 41% 30.16 in 10.0 mi North 11.5 mph 24.2 mph N/A   Clear
12:51 PM 48.0 °F - 23.0 °F 37% 30.15 in 10.0 mi NNW 19.6 mph 33.4 mph N/A   Clear
1:51 PM 48.9 °F - 21.0 °F 33% 30.16 in 10.0 mi NNW 11.5 mph 26.5 mph N/A   Clear
2:51 PM 50.0 °F - 21.0 °F 32% 30.17 in 10.0 mi NNW 13.8 mph 27.6 mph N/A   Clear
3:51 PM 48.0 °F - 19.9 °F 33% 30.19 in 10.0 mi North 15.0 mph 27.6 mph N/A   Clear
4:51 PM 46.0 °F 40.2 °F 19.0 °F 34% 30.24 in 10.0 mi North 12.7 mph 23.0 mph N/A   Clear
5:51 PM 43.0 °F 36.8 °F 18.0 °F 37% 30.29 in 10.0 mi NNW 11.5 mph 19.6 mph N/A   Clear
6:51 PM 41.0 °F 35.8 °F 18.0 °F 40% 30.33 in 10.0 mi NNW 8.1 mph - N/A   Clear
7:51 PM 39.9 °F 35.8 °F 18.0 °F 41% 30.37 in 10.0 mi NNW 5.8 mph - N/A   Clear
8:51 PM 39.0 °F 33.4 °F 17.1 °F 41% 30.40 in 10.0 mi North 8.1 mph 19.6 mph N/A   Clear
9:51 PM 37.9 °F 32.1 °F 16.0 °F 41% 30.44 in 10.0 mi North 8.1 mph 18.4 mph N/A   Clear
10:51 PM 36.0 °F 31.1 °F 17.1 °F 46% 30.46 in 10.0 mi Variable 5.8 mph 16.1 mph N/A   Clear
11:51 PM 34.0 °F 28.0 °F 15.1 °F 46% 30.48 in 10.0 mi NNE 6.9 mph 20.7 mph N/A   Clear